CW6666 Weather Reports


Display with metric or nautical units.
time (UTC)temp
F
wind
direction
speed
MPH
gust
MPH
rain 1hr
in
rain 24hr
in
rain mn
in
humidity
%
barometer
mb
20140916045330 81 108 8.0 15.0 0.00 0.77 0.63 89 1004.3
20140916044919 82 145 8.0 13.0 0.00 0.77 0.63 89 1004.3
20140916044330 82 101 10.0 14.0 0.00 0.77 0.63 89 1004.3
20140916043357 82 105 9.0 12.0 0.00 0.77 0.63 89 1004.3
20140916042827 82 109 8.0 13.0 0.00 0.77 0.63 89 1004.3
20140916042355 82 123 8.0 13.0 0.00 0.77 0.63 89 1004.3
20140916041841 82 106 8.0 12.0 0.01 0.77 0.63 88 1004.3
20140916040910 82 128 4.0 14.0 0.01 0.77 0.63 88 1004.3
20140916040402 82 126 8.0 14.0 0.01 0.77 0.63 89 1004.3
20140916035836 82 103 7.0 10.0 0.01 0.77 0.63 89 1004.3
20140916034854 81 130 3.0 8.0 0.01 0.77 0.63 89 1004.3
20140916034327 81 136 4.0 12.0 0.01 0.77 0.63 90 1004.4
20140916033913 81 110 8.0 12.0 0.01 0.77 0.63 90 1004.4
20140916033348 81 101 1.0 11.0 0.01 0.77 0.63 90 1004.4
20140916032843 81 171 7.0 14.0 0.01 0.77 0.63 90 1004.4
20140916032413 81 117 8.0 17.0 0.01 0.77 0.63 90 1004.4
20140916031841 81 101 13.0 17.0 0.01 0.77 0.63 91 1004.4
20140916031417 80 115 6.0 11.0 0.01 0.76 0.62 92 1004.8
20140916030857 80 145 4.0 9.0 0.02 0.76 0.62 92 1004.8
20140916030333 79 139 0.0 4.0 0.02 0.76 0.62 92 1004.8
20140916024902 79 141 0.0 0.0 0.04 0.76 0.62 92 1004.9
20140916024351 79 138 0.0 1.0 0.05 0.76 0.62 92 1004.9
20140916023838 79 102 0.0 2.0 0.06 0.76 0.62 92 1004.9
20140916023418 79 126 0.0 3.0 0.06 0.76 0.62 92 1004.9
20140916022358 79 153 2.0 6.0 0.06 0.76 0.62 92 1005.1
20140916021832 79 194 1.0 5.0 0.06 0.76 0.62 92 1005.1
20140916020351 79 151 2.0 8.0 0.04 0.74 0.60 91 1005.3
20140916015828 79 173 1.0 11.0 0.04 0.74 0.60 91 1005.3
20140916015354 79 148 4.0 11.0 0.05 0.74 0.60 91 1005.3
20140916014828 79 184 2.0 9.0 0.03 0.72 0.58 90 1005.3
20140916013919 80 88 8.0 10.0 0.01 0.70 0.56 92 1005.3
20140916013335 79 114 5.0 5.0 0.01 0.70 0.56 92 1005.3
20140916012401 79 144 0.0 0.0 0.01 0.70 0.56 92 1005.1
20140916011837 79 145 0.0 0.0 0.01 0.70 0.56 92 1005.1
20140916011415 79 109 0.0 6.0 0.01 0.70 0.56 92 1005.4
20140916010851 79 125 0.0 7.0 0.10 0.70 0.56 92 1005.4
20140916010411 79 113 3.0 7.0 0.18 0.70 0.56 92 1005.4
20140916005829 79 159 1.0 7.0 0.18 0.70 0.56 93 1005.5
20140916005354 79 163 0.0 3.0 0.20 0.70 0.56 92 1005.5
20140916004837 79 169 0.0 0.0 0.22 0.69 0.55 92 1005.5
20140916004418 79 132 0.0 0.0 0.23 0.69 0.55 93 1005.4
20140916003837 79 87 0.0 0.0 0.24 0.69 0.55 92 1005.4
20140916003405 79 87 0.0 0.0 0.24 0.69 0.55 92 1005.4
20140916002834 78 87 0.0 0.0 0.24 0.69 0.55 92 1005.5
20140916002352 78 87 0.0 3.0 0.24 0.69 0.55 92 1005.5
20140916001842 78 144 0.0 3.0 0.24 0.69 0.55 91 1005.5
20140916001416 78 145 1.0 17.0 0.24 0.73 0.55 91 1006.0
20140916000858 78 104 4.0 17.0 0.19 0.68 0.50 90 1006.0
20140916000422 79 67 6.0 12.0 0.08 0.57 0.39 91 1006.0
20140915235847 80 99 8.0 12.0 0.07 0.56 0.38 91 1005.8
20140915234858 80 144 6.0 12.0 0.03 0.52 0.34 91 1005.8
20140915234346 80 103 7.0 10.0 0.01 0.50 0.32 91 1005.6
20140915233840 80 123 0.0 0.0 0.00 0.49 0.31 91 1005.6
20140915233407 80 137 0.0 0.0 0.00 0.49 0.31 91 1005.6
20140915232832 80 137 0.0 0.0 0.00 0.49 0.31 92 1005.5
20140915232355 79 137 0.0 0.0 0.00 0.49 0.31 92 1005.5
20140915231836 79 125 0.0 0.0 0.00 0.49 0.31 91 1005.5
20140915230902 79 125 0.0 0.0 0.07 0.57 0.31 91 1005.7
20140915230340 78 125 0.0 0.0 0.23 0.57 0.31 91 1005.7
20140915225352 79 115 0.0 4.0 0.25 0.57 0.31 91 1005.5
20140915224822 79 119 0.0 6.0 0.25 0.57 0.31 91 1005.5
20140915223853 79 194 3.0 5.0 0.25 0.57 0.31 91 1005.4
20140915223420 79 141 3.0 5.0 0.25 0.57 0.31 91 1005.4
20140915222346 79 143 2.0 3.0 0.25 0.57 0.31 90 1005.4
20140915221823 79 159 0.0 7.0 0.25 0.57 0.31 90 1005.4
20140915221403 79 159 3.0 15.0 0.25 1.21 0.31 89 1005.4
20140915220831 80 136 10.0 15.0 0.20 1.16 0.26 87 1005.4
20140915215844 83 157 7.0 15.0 0.00 0.96 0.06 85 1004.8
20140915215339 84 128 10.0 12.0 0.00 0.96 0.06 85 1004.8
20140915214405 84 93 6.0 12.0 0.00 0.96 0.06 86 1004.8
20140915213352 84 101 4.0 10.0 0.00 0.96 0.06 87 1004.8
20140915212831 83 117 4.0 12.0 0.00 0.96 0.06 88 1004.3
20140915212356 83 113 9.0 12.0 0.00 0.96 0.06 90 1004.3
20140915211824 82 102 6.0 9.0 0.00 0.96 0.06 91 1004.3
20140915211359 82 101 6.0 9.0 0.00 0.98 0.06 92 1004.5
20140915210840 80 102 8.0 9.0 0.00 0.98 0.06 93 1004.4
20140915205350 79 319 0.0 0.0 0.06 0.98 0.06 91 1004.4
20140915204832 79 319 0.0 4.0 0.06 0.98 0.06 91 1004.4
20140915204405 79 319 3.0 4.0 0.06 0.98 0.06 91 1004.2
20140915203842 79 64 0.0 0.0 0.06 0.98 0.06 91 1004.2
20140915203415 79 64 0.0 1.0 0.06 0.98 0.06 91 1004.2
20140915202852 79 64 0.0 2.0 0.06 0.98 0.06 90 1003.8
20140915202326 79 64 0.0 7.0 0.06 0.98 0.06 90 1003.8
20140915201344 79 65 9.0 15.0 0.06 1.01 0.06 89 1003.7
20140915200832 80 86 10.0 15.0 0.06 1.01 0.06 89 1003.7
20140915200405 81 112 12.0 16.0 0.03 0.98 0.03 87 1003.7
20140915195849 83 89 13.0 16.0 0.00 0.95 0.00 87 1003.8
20140915195416 83 96 6.0 10.0 0.00 0.95 0.00 86 1003.8
20140915193904 83 98 5.0 7.0 0.00 0.95 0.00 86 1003.6
20140915193422 83 112 4.0 11.0 0.00 0.95 0.00 85 1003.6
20140915192358 83 94 6.0 10.0 0.00 0.95 0.00 85 1003.8
20140915191847 83 96 6.0 11.0 0.00 0.95 0.00 85 1003.8
20140915190900 83 108 7.0 12.0 0.00 1.03 0.00 84 1003.6
20140915190333 83 119 7.0 14.0 0.00 1.03 0.00 83 1003.6
20140915185356 83 98 7.0 10.0 0.00 1.03 0.00 83 1003.4
20140915184831 83 113 8.0 10.0 0.00 1.03 0.00 83 1003.4
20140915184417 83 136 7.0 9.0 0.00 1.03 0.00 83 1003.3
20140915183348 83 85 6.0 11.0 0.00 1.03 0.00 86 1003.3
20140915182828 83 109 9.0 11.0 0.00 1.03 0.00 86 1003.3
20140915182356 83 112 6.0 10.0 0.00 1.03 0.00 85 1003.3
20140915181844 83 107 8.0 11.0 0.00 1.03 0.00 86 1003.3
20140915181413 83 113 6.0 11.0 0.00 1.06 0.00 86 1003.3
20140915180852 83 101 8.0 10.0 0.00 1.06 0.00 86 1003.3
20140915180345 83 125 7.0 10.0 0.00 1.06 0.00 86 1003.3
20140915175825 83 113 6.0 10.0 0.00 1.06 0.00 86 1003.3
20140915174906 83 97 6.0 9.0 0.00 1.06 0.00 87 1003.3
20140915174325 83 104 7.0 10.0 0.00 1.06 0.00 87 1003.3
20140915173911 83 100 8.0 11.0 0.00 1.06 0.00 87 1003.3
20140915173354 83 108 7.0 11.0 0.00 1.06 0.00 87 1003.3
20140915172825 83 127 7.0 11.0 0.00 1.06 0.00 87 1003.3
20140915172353 83 114 6.0 11.0 0.00 1.06 0.00 87 1003.3
20140915171836 83 130 10.0 11.0 0.00 1.06 0.00 86 1003.3
20140915171414 83 113 7.0 12.0 0.00 1.06 0.00 86 1003.3
20140915170854 83 99 9.0 12.0 0.00 1.06 0.00 86 1003.3
20140915170422 83 105 9.0 10.0 0.00 1.06 0.00 87 1003.3
20140915164358 83 123 6.0 9.0 0.00 1.06 0.00 86 1003.6
20140915163835 83 101 6.0 11.0 0.00 1.06 0.00 86 1003.6
20140915163406 83 121 7.0 11.0 0.00 1.06 0.00 86 1003.6
20140915162840 83 100 6.0 9.0 0.00 1.06 0.00 86 1003.4
20140915161912 83 111 7.0 12.0 0.00 1.06 0.00 85 1003.4
20140915161345 83 115 8.0 12.0 0.00 1.13 0.00 85 1003.6
20140915160829 82 100 10.0 11.0 0.00 1.13 0.00 85 1003.6
20140915155836 82 100 7.0 11.0 0.00 1.13 0.00 85 1003.8
20140915155331 82 117 8.0 11.0 0.00 1.13 0.00 86 1003.8
20140915154841 82 103 7.0 12.0 0.00 1.13 0.00 87 1003.8
20140915154336 81 103 6.0 11.0 0.00 1.13 0.00 87 1003.9
20140915153827 81 120 5.0 11.0 0.00 1.13 0.00 87 1003.9
20140915153340 81 112 8.0 11.0 0.00 1.13 0.00 88 1003.9
20140915152829 81 99 6.0 10.0 0.00 1.13 0.00 89 1004.1
20140915152339 81 111 5.0 10.0 0.00 1.13 0.00 89 1004.1
20140915151826 81 116 6.0 10.0 0.00 1.13 0.00 89 1004.1
20140915151338 81 102 5.0 10.0 0.00 1.16 0.00 89 1004.3
20140915150823 81 84 5.0 9.0 0.00 1.16 0.00 90 1004.3
20140915150342 81 82 7.0 9.0 0.00 1.16 0.00 90 1004.3
20140915145825 81 87 7.0 10.0 0.01 1.16 0.00 90 1004.4
20140915145339 81 88 7.0 10.0 0.01 1.16 0.00 90 1004.4
20140915144825 81 83 7.0 11.0 0.01 1.16 0.00 90 1004.4
20140915144338 81 80 8.0 11.0 0.01 1.16 0.00 90 1004.8
20140915143825 81 76 8.0 11.0 0.01 1.16 0.00 90 1004.8
20140915143336 81 80 7.0 9.0 0.01 1.16 0.00 91 1004.8
20140915142825 81 105 5.0 11.0 0.01 1.16 0.00 90 1005.1
20140915142333 81 86 7.0 11.0 0.01 1.16 0.00 90 1005.1
20140915141839 81 115 5.0 14.0 0.01 1.16 0.00 90 1005.1
20140915141330 81 92 6.0 15.0 0.01 1.16 0.00 90 1005.4
20140915140835 81 84 12.0 17.0 0.01 1.16 0.00 90 1005.4
20140915140327 81 92 11.0 17.0 0.04 1.16 0.00 90 1005.4
20140915135836 80 142 2.0 5.0 0.04 1.15 1.15 90 1005.4
20140915133904 81 121 0.0 1.0 0.04 1.15 1.15 90 1005.4
20140915133332 81 157 0.0 2.0 0.04 1.15 1.15 89 1005.4
20140915132354 81 173 1.0 7.0 0.04 1.15 1.15 88 1005.4
20140915131824 82 174 2.0 7.0 0.04 1.15 1.15 88 1005.4
20140915131400 82 123 4.0 6.0 0.04 1.16 1.15 88 1005.4
20140915130831 82 135 1.0 6.0 0.04 1.16 1.15 86 1005.4
20140915130413 83 136 4.0 12.0 0.02 1.14 1.13 86 1005.4
20140915125841 83 109 5.0 14.0 0.00 1.12 1.11 86 1005.0
20140915125417 83 106 9.0 14.0 0.00 1.12 1.11 87 1005.0
20140915124843 83 114 7.0 10.0 0.00 1.12 1.11 88 1005.0
20140915124419 83 109 8.0 10.0 0.00 1.12 1.11 88 1005.1
20140915123841 82 114 5.0 10.0 0.01 1.12 1.11 89 1005.1
20140915122346 82 126 3.0 5.0 0.01 1.12 1.11 89 1005.0
20140915121837 82 126 0.0 4.0 0.01 1.12 1.11 89 1005.0
20140915121409 82 131 0.0 5.0 0.01 1.12 1.11 89 1004.9
20140915120853 82 128 2.0 5.0 0.01 1.12 1.11 88 1004.9
20140915120419 82 98 4.0 9.0 0.02 1.12 1.11 88 1004.9
20140915115856 82 88 4.0 11.0 0.02 1.12 1.11 88 1004.8
20140915115420 82 119 2.0 11.0 0.02 1.12 1.11 88 1004.8
20140915114853 82 130 3.0 12.0 0.02 1.12 1.11 88 1004.8
20140915114320 82 128 4.0 14.0 0.02 1.12 1.11 87 1004.9
20140915113908 83 117 11.0 14.0 0.02 1.12 1.11 87 1004.9
20140915113333 82 153 7.0 11.0 0.01 1.11 1.10 88 1004.9
20140915112400 82 115 3.0 6.0 0.02 1.11 1.10 89 1004.9
20140915111840 82 136 2.0 6.0 0.02 1.11 1.10 88 1004.9
20140915111420 82 121 2.0 6.0 0.02 1.16 1.10 88 1004.9
20140915110906 82 102 5.0 10.0 0.02 1.16 1.10 88 1004.9
20140915110341 82 145 6.0 10.0 0.01 1.15 1.09 88 1004.9
20140915105823 82 119 5.0 8.0 0.01 1.15 1.09 88 1005.0
20140915105350 82 123 5.0 8.0 0.02 1.15 1.09 87 1005.0
20140915104835 82 105 5.0 8.0 0.02 1.15 1.09 87 1005.0
20140915103910 83 106 8.0 10.0 0.02 1.15 1.09 87 1004.9
20140915103340 83 94 8.0 10.0 0.03 1.15 1.09 87 1004.9
20140915102827 83 88 9.0 10.0 0.03 1.15 1.09 87 1004.9
20140915101909 83 92 10.0 12.0 0.03 1.14 1.08 87 1004.9
20140915101341 83 85 7.0 9.0 0.03 1.14 1.08 88 1004.7
20140915100920 83 113 6.0 9.0 0.03 1.14 1.08 87 1004.7
20140915095852 82 88 9.0 11.0 0.03 1.14 1.08 88 1004.3
20140915095326 82 106 7.0 10.0 0.02 1.13 1.07 89 1004.3
20140915094827 82 87 6.0 9.0 0.02 1.13 1.07 88 1004.3
20140915093858 82 101 7.0 9.0 0.02 1.13 1.07 88 1004.2
20140915093416 82 96 7.0 9.0 0.02 1.13 1.07 88 1004.2
20140915092846 82 113 6.0 10.0 0.01 1.12 1.06 87 1003.9
20140915092349 83 90 8.0 10.0 0.01 1.12 1.06 87 1003.9
20140915091832 83 104 9.0 11.0 0.00 1.11 1.05 87 1003.9
20140915090911 83 94 9.0 10.0 0.00 1.11 1.05 86 1003.8
20140915090341 83 103 9.0 10.0 0.00 1.11 1.05 85 1003.8
20140915085922 83 98 9.0 11.0 0.00 1.11 1.05 86 1003.8
20140915085340 83 89 10.0 11.0 0.00 1.11 1.05 86 1003.8
20140915084825 83 92 6.0 9.0 0.00 1.11 1.05 86 1003.8
20140915084413 83 102 6.0 11.0 0.00 1.11 1.05 86 1003.6
20140915083856 83 105 10.0 11.0 0.00 1.11 1.05 86 1003.6
20140915083347 83 92 9.0 12.0 0.00 1.11 1.05 86 1003.6
20140915082828 83 97 10.0 12.0 0.00 1.11 1.05 86 1003.4
20140915081402 83 97 9.0 11.0 0.03 1.11 1.05 87 1003.3
20140915080842 83 80 8.0 10.0 0.03 1.11 1.05 87 1003.3
20140915080411 83 73 9.0 10.0 0.03 1.11 1.05 88 1003.3
20140915075400 83 73 10.0 12.0 0.03 1.11 1.05 88 1003.3
20140915074834 83 74 8.0 12.0 0.03 1.11 1.05 88 1003.3
20140915073849 83 69 11.0 13.0 0.03 1.11 1.05 88 1003.1
20140915073326 83 65 11.0 13.0 0.03 1.11 1.05 89 1003.1
20140915072915 82 58 10.0 13.0 0.03 1.11 1.05 89 1003.2
20140915072343 82 76 8.0 14.0 0.03 1.11 1.05 89 1003.2
20140915071835 82 61 8.0 18.0 0.03 1.11 1.05 88 1003.2
20140915070904 84 79 10.0 18.0 0.00 1.08 1.02 86 1002.9
20140915070422 84 87 9.0 13.0 0.00 1.08 1.02 86 1002.9
20140915065851 83 89 10.0 13.0 0.00 1.08 1.02 86 1002.8
20140915064832 83 87 10.0 13.0 0.00 1.08 1.02 87 1002.8
20140915064408 83 73 11.0 13.0 0.00 1.08 1.02 87 1002.7
20140915063836 83 81 11.0 13.0 0.00 1.08 1.02 87 1002.7
20140915063409 83 91 11.0 12.0 0.00 1.08 1.02 87 1002.7
20140915062850 83 78 8.0 13.0 0.00 1.08 1.02 86 1002.7
20140915062346 84 80 10.0 13.0 0.00 1.08 1.02 86 1002.7
20140915061850 84 87 10.0 12.0 0.00 1.08 1.02 86 1002.7
20140915061417 84 87 11.0 13.0 0.00 1.08 1.02 86 1002.7
20140915060403 84 81 12.0 12.0 0.00 1.08 1.02 85 1002.7
20140915055848 84 87 10.0 13.0 0.00 1.08 1.02 86 1002.8
20140915054353 84 82 11.0 13.0 0.00 1.08 1.02 86 1002.6
20140915053838 84 80 11.0 13.0 0.00 1.08 1.02 86 1002.6
20140915053407 84 78 11.0 13.0 0.00 1.08 1.02 86 1002.6
20140915052840 84 67 12.0 13.0 0.00 1.08 1.02 87 1002.5
20140915052421 83 72 12.0 13.0 0.00 1.08 1.02 86 1002.5
20140915051856 83 80 11.0 12.0 0.00 1.08 1.02 87 1002.5
20140915051331 83 86 10.0 13.0 0.00 1.09 1.02 87 1002.4
20140915050918 83 77 11.0 13.0 0.00 1.09 1.02 87 1002.4
20140915050346 83 96 10.0 13.0 0.00 1.09 1.02 87 1002.4
20140915045921 83 90 11.0 14.0 0.00 1.09 1.02 86 1002.3